When you browse on this site, cookies collect data to enhance your experience and personalize the content and advertising you see.
Visit our Privacy Policy to learn more. By continuing to use the site, you agree to this use of cookies and data.
  • In Hungary
  • List of Countries
  • For 7 days
  • Water Temperature
  • Satellite Maps
  • Weather Map
  • News
  • Weather Widgets
  • user-avatar
    Login

    Hourly Weather Kachin

    Today, 15 February, Friday

    Time Temperature Precipitation Wind Pressure Humidity
    00:00 +15°C° 0 mm 1 mps 719 mmHg 54%
    01:00 +15°C° 0 mm 1 mps 719 mmHg 54%
    02:00 +14°C° 0 mm 1 mps 719 mmHg 54%
    03:00 +14°C° 0 mm 1 mps 719 mmHg 54%
    04:00 +14°C° 0 mm 1 mps 719 mmHg 53%
    05:00 +13°C° 0 mm 1 mps 719 mmHg 53%
    06:00 +14°C° 0 mm 1 mps 719 mmHg 51%
    07:00 +18°C° 0 mm 1 mps 720 mmHg 45%
    08:00 +20°C° 0 mm 1 mps 720 mmHg 40%
    09:00 +23°C° 0 mm 1 mps 721 mmHg 35%
    10:00 +26°C° 0 mm 1 mps 721 mmHg 32%
    11:00 +28°C° 0 mm 1 mps 721 mmHg 30%
    12:00 +30°C° 0 mm 1 mps 721 mmHg 26%
    13:00 +30°C° 0 mm 1 mps 720 mmHg 27%
    14:00 +30°C° 0 mm 1 mps 719 mmHg 28%
    15:00 +30°C° 0 mm 1 mps 719 mmHg 29%
    16:00 +27°C° 0 mm 1 mps 719 mmHg 37%
    17:00 +24°C° 0 mm 1 mps 718 mmHg 44%
    18:00 +21°C° 0 mm 1 mps 718 mmHg 53%
    19:00 +18°C° 0 mm 0 mps 719 mmHg 54%
    20:00 +17°C° 0 mm 0 mps 719 mmHg 55%
    21:00 +16°C° 0 mm 0 mps 719 mmHg 56%
    22:00 +16°C° 0.1 mm 1 mps 719 mmHg 60%
    23:00 +16°C° 0.1 mm 1 mps 720 mmHg 65%

    Tomorrow, 16 February, Saturday

    Time Temperature Precipitation Wind Pressure Humidity
    00:00 +15°C° 0.1 mm 1 mps 720 mmHg 69%
    01:00 +14°C° 0.1 mm 1 mps 720 mmHg 73%
    02:00 +14°C° 0.1 mm 1 mps 719 mmHg 76%
    03:00 +13°C° 0.1 mm 1 mps 719 mmHg 80%
    04:00 +13°C° 0 mm 1 mps 719 mmHg 79%
    05:00 +13°C° 0 mm 1 mps 719 mmHg 79%
    06:00 +12°C° 0 mm 1 mps 719 mmHg 79%
    07:00 +15°C° 0 mm 1 mps 720 mmHg 68%
    08:00 +20°C° 0 mm 1 mps 720 mmHg 56%
    09:00 +23°C° 0 mm 1 mps 721 mmHg 45%
    10:00 +25°C° 0 mm 1 mps 720 mmHg 39%
    11:00 +27°C° 0 mm 1 mps 720 mmHg 33%
    12:00 +30°C° 0 mm 1 mps 720 mmHg 28%
    13:00 +30°C° 0 mm 1 mps 719 mmHg 27%
    14:00 +30°C° 0 mm 1 mps 718 mmHg 27%
    15:00 +30°C° 0 mm 1 mps 717 mmHg 27%
    16:00 +27°C° 0 mm 1 mps 717 mmHg 35%
    17:00 +24°C° 0 mm 1 mps 716 mmHg 44%
    18:00 +18°C° 0 mm 0 mps 716 mmHg 52%
    19:00 +18°C° 0.1 mm 0 mps 716 mmHg 55%
    20:00 +17°C° 0.1 mm 0 mps 716 mmHg 57%
    21:00 +18°C° 0.1 mm 1 mps 717 mmHg 59%
    22:00 +16°C° 0.4 mm 1 mps 717 mmHg 68%
    23:00 +15°C° 0.4 mm 1 mps 717 mmHg 76%

    Day after tomorrow, 17 February, Sunday

    Time Temperature Precipitation Wind Pressure Humidity
    00:00 +15°C° 0.4 mm 1 mps 717 mmHg 84%
    01:00 +14°C° 0.5 mm 1 mps 716 mmHg 86%
    02:00 +14°C° 0.5 mm 1 mps 716 mmHg 89%
    03:00 +14°C° 0.5 mm 1 mps 716 mmHg 92%
    04:00 +13°C° 0.5 mm 1 mps 716 mmHg 92%
    05:00 +13°C° 0.5 mm 1 mps 716 mmHg 93%
    06:00 +13°C° 0.5 mm 1 mps 716 mmHg 94%
    07:00 +15°C° 0.2 mm 1 mps 717 mmHg 86%
    08:00 +18°C° 0.2 mm 1 mps 718 mmHg 78%
    09:00 +18°C° 0.2 mm 0 mps 718 mmHg 70%
    10:00 +22°C° 0.1 mm 1 mps 718 mmHg 61%
    11:00 +24°C° 0.1 mm 1 mps 718 mmHg 51%
    12:00 +26°C° 0.1 mm 1 mps 717 mmHg 42%
    13:00 +26°C° 0.3 mm 1 mps 716 mmHg 46%
    14:00 +25°C° 0.3 mm 1 mps 715 mmHg 50%
    15:00 +24°C° 0.3 mm 1 mps 715 mmHg 55%
    16:00 +22°C° 1.5 mm 1 mps 715 mmHg 67%
    17:00 +19°C° 1.5 mm 1 mps 715 mmHg 79%
    18:00 +16°C° 1.5 mm 1 mps 715 mmHg 92%
    19:00 +15°C° 1.6 mm 1 mps 715 mmHg 93%
    20:00 +15°C° 1.6 mm 1 mps 716 mmHg 94%
    21:00 +14°C° 1.6 mm 1 mps 716 mmHg 95%
    22:00 +14°C° 0.5 mm 1 mps 716 mmHg 95%
    23:00 +13°C° 0.5 mm 1 mps 716 mmHg 96%

    18 February, Monday

    Time Temperature Precipitation Wind Pressure Humidity
    00:00 +13°C° 0.5 mm 1 mps 716 mmHg 96%
    01:00 +13°C° 0.2 mm 1 mps 716 mmHg 96%
    02:00 +12°C° 0.2 mm 1 mps 715 mmHg 96%
    03:00 +12°C° 0.2 mm 1 mps 715 mmHg 96%
    04:00 +12°C° 0.3 mm 1 mps 715 mmHg 96%
    05:00 +12°C° 0.3 mm 1 mps 715 mmHg 96%
    06:00 +12°C° 0.3 mm 1 mps 716 mmHg 96%
    07:00 +14°C° 0.1 mm 1 mps 716 mmHg 87%
    08:00 +15°C° 0.1 mm 1 mps 717 mmHg 79%
    09:00 +18°C° 0.1 mm 1 mps 718 mmHg 71%
    10:00 +21°C° 0 mm 1 mps 718 mmHg 61%
    11:00 +21°C° 0 mm 0 mps 717 mmHg 50%
    12:00 +24°C° 0 mm 0 mps 717 mmHg 40%
    13:00 +23°C° 0.3 mm 0 mps 717 mmHg 44%
    14:00 +22°C° 0.3 mm 0 mps 716 mmHg 47%
    15:00 +22°C° 0.3 mm 0 mps 715 mmHg 50%
    16:00 +19°C° 0.3 mm 0 mps 715 mmHg 60%
    17:00 +17°C° 0.3 mm 0 mps 715 mmHg 70%
    18:00 +14°C° 0.3 mm 0 mps 715 mmHg 80%
    19:00 +13°C° 0.2 mm 0 mps 716 mmHg 82%
    20:00 +12°C° 0.2 mm 0 mps 717 mmHg 83%
    21:00 +11°C° 0.2 mm 0 mps 717 mmHg 85%
    22:00 +12°C° 0.4 mm 1 mps 717 mmHg 86%
    23:00 +12°C° 0.4 mm 1 mps 717 mmHg 87%

    19 February, Tuesday

    Time Temperature Precipitation Wind Pressure Humidity
    00:00 +12°C° 0.4 mm 1 mps 717 mmHg 88%
    01:00 +11°C° 0.3 mm 1 mps 717 mmHg 89%
    02:00 +11°C° 0.3 mm 1 mps 717 mmHg 90%
    03:00 +11°C° 0.3 mm 1 mps 716 mmHg 91%
    04:00 +11°C° 0.2 mm 1 mps 717 mmHg 92%
    05:00 +11°C° 0.2 mm 1 mps 717 mmHg 92%
    06:00 +11°C° 0.2 mm 1 mps 717 mmHg 93%
    07:00 +13°C° 0.1 mm 1 mps 718 mmHg 86%
    08:00 +15°C° 0.1 mm 1 mps 719 mmHg 78%
    09:00 +18°C° 0.1 mm 1 mps 720 mmHg 71%
    10:00 +20°C° 0.1 mm 1 mps 720 mmHg 62%
    11:00 +23°C° 0.1 mm 1 mps 720 mmHg 52%
    12:00 +23°C° 0.1 mm 0 mps 719 mmHg 42%
    13:00 +22°C° 0.2 mm 0 mps 719 mmHg 47%
    14:00 +22°C° 0.2 mm 0 mps 718 mmHg 52%
    15:00 +21°C° 0.2 mm 0 mps 717 mmHg 57%
    16:00 +19°C° 0.3 mm 0 mps 718 mmHg 65%
    17:00 +16°C° 0.3 mm 0 mps 718 mmHg 73%
    18:00 +15°C° 0.3 mm 1 mps 718 mmHg 81%
    19:00 +14°C° 0.2 mm 1 mps 719 mmHg 81%
    20:00 +14°C° 0.2 mm 1 mps 719 mmHg 82%
    21:00 +13°C° 0.2 mm 1 mps 720 mmHg 83%
    22:00 +13°C° 0.3 mm 1 mps 720 mmHg 85%
    23:00 +12°C° 0.3 mm 1 mps 720 mmHg 87%

    20 February, Wednesday

    Time Temperature Precipitation Wind Pressure Humidity
    00:00 +12°C° 0.3 mm 1 mps 719 mmHg 90%
    01:00 +12°C° 0.2 mm 1 mps 719 mmHg 90%
    02:00 +11°C° 0.2 mm 1 mps 719 mmHg 90%
    03:00 +11°C° 0.2 mm 1 mps 718 mmHg 91%
    04:00 +11°C° 0 mm 1 mps 719 mmHg 91%
    05:00 +11°C° 0 mm 1 mps 719 mmHg 91%
    06:00 +11°C° 0 mm 1 mps 719 mmHg 91%
    07:00 +14°C° 0 mm 1 mps 720 mmHg 79%
    08:00 +16°C° 0 mm 1 mps 721 mmHg 66%
    09:00 +20°C° 0 mm 1 mps 722 mmHg 54%
    10:00 +23°C° 0 mm 1 mps 722 mmHg 47%
    11:00 +25°C° 0 mm 1 mps 722 mmHg 41%
    12:00 +27°C° 0 mm 1 mps 721 mmHg 34%
    13:00 +26°C° 0 mm 1 mps 721 mmHg 36%
    14:00 +25°C° 0 mm 1 mps 720 mmHg 38%
    15:00 +24°C° 0 mm 1 mps 719 mmHg 40%
    16:00 +22°C° 0 mm 1 mps 719 mmHg 44%
    17:00 +20°C° 0 mm 1 mps 720 mmHg 48%
    18:00 +17°C° 0 mm 0 mps 720 mmHg 53%
    19:00 +16°C° 0 mm 1 mps 721 mmHg 54%
    20:00 +15°C° 0 mm 1 mps 721 mmHg 56%
    21:00 +14°C° 0 mm 1 mps 722 mmHg 57%
    22:00 +14°C° 0 mm 1 mps 722 mmHg 58%
    23:00 +13°C° 0 mm 1 mps 722 mmHg 59%
    Show more